Weather in Tursunzoda

Tajikistan     38°30′39″N   68°13′58″E
temp.,
°C
wind,
m/s
gust,
m/s
humid.,
%
clouds,
%
prec.,
mm/h
press.,
hPa
HPBL,
m
26 january, tue
tue2623:000ene11566 0.0 102922
02:000ene1253100 0.0 102822
05:000ene225288 0.0 102821
08:00−1ene23550 0.0 102921
11:00+3e23660 0.0 1028150
14:00+5e23570 0.0 1025250
17:00+3ene23600 0.0 102527
20:00+1ne22540 0.0 102622
27 january, wed
wed2723:00+1ene23490 0.0 102622
02:00+1ene33480 0.0 102622
05:00+1ne23470 0.0 102622
08:00+1ene23450 0.0 102722
11:00+5e22440 0.0 1027179
14:00+7e23430 0.0 1025301
17:00+4ene23530 0.0 102529
20:00+2ne23470 0.0 102722
28 january, thu
thu2823:00+2ne23420 0.0 102622
02:00+2ene33420 0.0 102724
05:00+1ne33400 0.0 102624
08:00+1ne33370 0.0 102725
11:00+6e23330 0.0 1025236
14:00+8e33340 0.0 1023325
17:00+5ene33450 0.0 102338
20:00+3ne33380 0.0 102523
29 january, fri
fri2923:00+3ne23340 0.0 102524
02:00+2ne33330 0.0 102425
05:00+2ne33300 0.0 102427
08:00+3ne33280 0.0 102427
11:00+9e34250 0.0 1023258
14:00+11e34270 0.0 1021321
17:00+8ne33380 0.0 102139
20:00+5ne33340 0.0 102328
30 january, sat
sat3023:00+4ne34330 0.0 102330
02:00+4ne34310 0.0 102231
05:00+4ne33290 0.0 102125
08:00+4ne342893 0.0 102129
11:00+10ene362996 0.0 1020248
14:00+14e352461 0.0 1017428
17:00+11ne333478 0.0 101633
20:00+9ne3329100 0.0 101525